This demonstration page uses our WeatherBlox Daily Observations layout. Learn more.

Left ArrowRight Arrow

44.89941, -97.11507

Hourly Observations for October 6, 2021

Temp ( °F °C ) Dew Point ( °F °C ) Humidity (%) Winds ( mph kmh ) Pressure ( in mb ) Visibility ( mi km ) Precip ( " mm )
12:53 am 00:53 Clear 57 13.9 52 11.1 83 83 SSE 8 13 30.15 1021 10 16 N/A
1:53 am 01:53 Clear 56 13.3 51 10.6 84 84 SSE 10 17 30.15 1021 10 16 N/A
2:53 am 02:53 Clear 54 12.2 51 10.6 90 90 SSE 9 15 30.16 1021 10 16 N/A
3:53 am 03:53 Clear 54 12.2 52 11.1 93 93 SSE 9 15 30.16 1021 10 16 N/A
4:53 am 04:53 Clear 53 11.7 51 10.6 93 93 SSE 9 15 30.16 1022 10 16 N/A
5:53 am 05:53 Clear 53 11.7 51 10.6 93 93 SSE 8 13 30.16 1022 10 16 N/A
6:53 am 06:53 Clear 53 11.7 51 10.6 93 93 SSE 9 15 30.17 1022 10 16 N/A
7:53 am 07:53 Sunny 52 11.1 51 10.6 97 97 SSE 9 15 30.18 1022 10 16 N/A
8:53 am 08:53 Sunny 55 12.8 52 11.1 90 90 SSE 9 15 30.17 1022 10 16 N/A
9:53 am 09:53 Sunny 59 15 55 12.8 87 87 SSE 14 22 30.17 1022 10 16 N/A
10:53 am 10:53 Sunny 64 17.8 57 13.9 78 78 S 18 30 30.16 1021 10 16 N/A
11:53 am 11:53 Sunny 68 20 58 14.4 70 70 SSE 14 22 30.14 1021 10 16 N/A
12:53 pm 12:53 Partly Cloudy 71 21.7 59 15 66 66 SSE 15 24 30.12 1020 10 16 N/A
1:53 pm 13:53 Partly Cloudy 71 21.7 57 13.9 61 61 SSE 15 24 30.10 1019 10 16 N/A
2:53 pm 14:53 Partly Cloudy 73 22.8 56 13.3 55 55 SSE 14 22 30.08 1019 10 16 N/A
3:53 pm 15:53 Mostly Cloudy 72 22.2 56 13.3 57 57 S 13 20 30.07 1018 10 16 N/A
4:53 pm 16:53 Cloudy 71 21.7 56 13.3 59 59 SSE 15 24 30.06 1018 10 16 N/A
5:53 pm 17:53 Mostly Cloudy 68 20 55 12.8 63 63 SE 12 19 30.06 1018 10 16 N/A
6:53 pm 18:53 Partly Cloudy 66 18.9 56 13.3 70 70 SSE 10 17 30.06 1018 10 16 N/A
7:53 pm 19:53 Mostly Cloudy 63 17.2 55 12.8 76 76 SE 7 11 30.07 1018 10 16 N/A
8:53 pm 20:53 Clear 62 16.7 55 12.8 78 78 SSE 10 17 30.07 1018 10 16 N/A
9:53 pm 21:53 Mostly Cloudy 61 16.1 55 12.8 81 81 SE 8 13 30.07 1018 10 16 N/A
10:53 pm 22:53 Clear 59 15 54 12.2 83 83 SSE 7 11 30.06 1018 10 16 N/A
11:53 pm 23:53 Clear 58 14.4 53 11.7 84 84 SSE 9 15 30.06 1018 10 16 N/A

Powered by AerisWeather